Welcome to the New NWS' Forecast!
Most changes are behind the scenes, but click here for differences you might notice.
Latest weather observations around

Missoula, Missoula International Airport (KMSO)

Using English Units (Switch to International System of Units)
Date/ Time (MST) Wind (mph) Vis. (mi) Weather Sky Cond. Temp (°F) Rel. Humidity Wind Chill (°F) Heat Index (°F) Pressure Precip. (in)
Air Dwpt 6 hour Altimeter (inHg) Sea level (inHg) 1 hr 3 hr 6 hr
Max Min
Dec 15 08:31 SSE 5 2 Fog/Mist OVC004 25 24     96% 19   30.12        
Dec 15 07:53 Calm 6 Fog/Mist OVC005 25 24     96%     30.14 30.26   0  
Dec 15 06:53 Calm 7 Cloudy OVC005 25 24     96%     30.16 30.27      
Dec 15 05:53 Calm 5 Fog/Mist OVC005 25 24     96%     30.18 30.29 0    
Dec 15 05:35 NNE 3 5 Fog/Mist OVC005 25 24     96% 21   30.19   0    
Dec 15 05:16 N 5 3 Light Snow and Fog/Mist OVC004 25 24     96% 19   30.19   0    
Dec 15 05:08 NNE 3 1.5 Light Snow and Fog/Mist OVC004 25 24     96% 21   30.19   0    
Dec 15 04:53 Calm 1 Fog/Mist OVC004 25 25     100%     30.21 30.32      
Dec 15 03:53 Calm 0.5 Fog VV003 25 24     96%     30.23 30.33      
Dec 15 03:19 W 3 0.75 Fog/Mist OVC002 24 23     96% 20   30.25        
Dec 15 03:12 W 3 1 Fog/Mist OVC002 24 23     96% 20   30.25        
Dec 15 03:04 SW 3 1.25 Fog/Mist OVC002 24 23     96% 20   30.24        
Dec 15 02:53 SW 3 2.5 Fog/Mist OVC002 24 23     96% 20   30.25 30.35      
Dec 15 02:34 Calm 2 Fog/Mist OVC002 26 25     96%     30.25        
Dec 15 01:53 Calm 5 Fog/Mist OVC004 25 24     96%     30.26 30.35      
Dec 15 01:05 Calm 5 Fog/Mist OVC004 25 24     96%     30.28        
Dec 15 00:53 Calm 5 Fog/Mist OVC005 26 24     92%     30.28 30.38      
Dec 15 00:42 Calm 5 Fog/Mist OVC005 26 24     92%     30.28        
Dec 14 23:53 SE 5 5 Fog/Mist OVC004 25 24     96% 19   30.3 30.41      
Dec 14 23:25 SE 5 4 Fog/Mist BKN004 BKN012 25 24     96% 19   30.31        
Dec 14 23:07 ESE 6 4 Fog/Mist SCT004 BKN012 25 23     92% 18   30.32        
Dec 14 22:53 ESE 7 5 Fog/Mist BKN004 24 23     96% 16   30.32 30.43      
Dec 14 22:46 ESE 7 5 Fog/Mist BKN004 25 23     92% 17   30.33        
Dec 14 22:37 ESE 6 5 Fog/Mist SCT004 24 22     91% 17   30.33        
Dec 14 21:53 E 5 9 Clear CLR 22 20     92% 16   30.33 30.45      
Dec 14 20:53 ENE 3 10 Clear CLR 24 21     88% 20   30.34 30.46      
Dec 14 19:53 Calm 10 Clear CLR 25 22     88%     30.36 30.47      
Dec 14 18:53 E 3 10 Clear CLR 27 24     89% 23   30.35 30.46      
Dec 14 17:53 W 3 10 Clear CLR 26 23     88% 22   30.36 30.48      
Dec 14 16:53 NNW 7 10 Clear CLR 29 25     85% 22   30.36 30.47      
Dec 14 15:53 WNW 8 10 Clear CLR 33 26     75% 26   30.37 30.47      
Dec 14 14:53 NW 6 10 Clear CLR 34 26     72% 29   30.37 30.47      
Dec 14 13:53 WNW 3 10 Clear CLR 34 26     72% 31   30.4 30.5      
Dec 14 12:53 NW 5 10 Partly Cloudy SCT024 33 26     75% 29   30.43 30.54      
Dec 14 11:53 Calm 10 Partly Cloudy SCT024 31 25     78%     30.45 30.55      
Dec 14 10:53 Calm 10 Cloudy OVC026 29 25     85%     30.49 30.61      
Dec 14 09:53 E 6 10 Cloudy SCT012 OVC026 29 24     82% 23   30.5 30.62      
Dec 14 08:53 Calm 9 Cloudy OVC024 28 24     85%     30.51 30.63      
Dec 14 07:53 Calm 9 Cloudy OVC025 27 25     92%     30.51 30.63      
Dec 14 06:53 WNW 3 10 Cloudy OVC028 27 24     89% 23   30.52 30.63      
Dec 14 05:53 SE 5 10 Cloudy OVC028 26 24     92% 20   30.5 30.61      
Dec 14 04:53 SE 7 10 Cloudy OVC029 27 25     92% 19   30.51 30.61      
Dec 14 03:53 Calm 10 Cloudy OVC029 27 24     89%     30.52 30.64      
Dec 14 02:53 SSE 5 10 Cloudy OVC028 26 24     92% 20   30.52 30.63      
Dec 14 01:53 Calm 10 Cloudy OVC028 26 24     92%     30.52 30.63      
Dec 14 00:53 WNW 3 10 Cloudy OVC029 25 23     92% 21   30.51 30.63      
Dec 14 00:37 Calm 10 Cloudy OVC029 25 23     92%     30.51        
Dec 13 23:53 Calm 10 Cloudy OVC030 24 22     91%     30.51 30.63      
Dec 13 22:53 Calm 10 Mostly Clear FEW035 23 21     92%     30.49 30.62      
Dec 13 21:53 NE 3 10 Clear CLR 23 20     88% 19   30.49 30.62      
Dec 13 20:53 NW 3 10 Clear CLR 24 22     91% 20   30.47 30.6      
Dec 13 19:53 E 6 10 Clear CLR 26 23     88% 19   30.46 30.59      
Dec 13 18:53 NNW 8 10 Cloudy OVC036 31 25     78% 23   30.45 30.57      
Dec 13 17:53 NNW 9 10 Cloudy OVC036 31 25     78% 23   30.44 30.55      
Dec 13 16:59 WNW 6 10 Cloudy OVC030 30 25     81% 24   30.44        
Dec 13 16:53 N 10 10 Cloudy OVC040 30 25     81% 21   30.45 30.57     0
Dec 13 15:53 W 6 7 Cloudy OVC040 29 25     85% 23   30.4 30.53      
Dec 13 14:53 NW 5 7 Cloudy OVC040 28 25     88% 23   30.39 30.51      
Dec 13 13:53 Calm 7 Cloudy OVC042 28 24     85%     30.36 30.48   0  
Dec 13 12:53 Calm 6 Fog/Mist BKN034 OVC055 27 24     89%     30.37 30.49 0    
Dec 13 12:35 Calm 3 Fog/Mist FEW030 SCT036 OVC060 26 24     92%     30.38   0    
Dec 13 12:19 Calm 1.75 Light Snow and Fog/Mist BKN033 BKN043 OVC060 26 23     88%     30.38   0    
Dec 13 12:14 Calm 2 Light Snow and Fog/Mist OVC038 26 24     92%     30.39   0    
Dec 13 11:53 Calm 5 Fog/Mist BKN040 OVC047 26 23     88%     30.38 30.51 0    
Dec 13 11:23 Calm 5 Fog/Mist OVC038 26 22     84%     30.4   0    
Dec 13 10:53 SE 3 3 Light Snow and Fog/Mist SCT019 BKN026 OVC041 25 22     88% 21   30.4 30.53 0   0
Dec 13 10:31 Calm 1 Light Snow and Fog/Mist BKN021 OVC033 24 21     88%     30.4   0    
Dec 13 10:15 Calm 1.5 Light Snow and Fog/Mist BKN033 OVC045 24 21     88%     30.4   0    
Dec 13 10:10 Calm 3 Light Snow and Fog/Mist SCT033 BKN043 OVC050 24 21     88%     30.39   0    
Dec 13 09:53 ESE 3 4 Fog/Mist BKN046 OVC055 24 20     84% 20   30.38 30.52      
Dec 13 08:53 Calm 6 Fog/Mist BKN075 OVC090 22 19     88%     30.36 30.5      
Dec 13 07:53 Calm 6 Fog/Mist OVC100 21 19     92%     30.36 30.5      
Dec 13 06:53 Calm 7 Cloudy OVC090 21 19     92%     30.34 30.48      
Dec 13 05:53 WNW 5 6 Fog/Mist FEW060 OVC100 21 19     92% 15   30.35 30.49      
Dec 13 04:53 WNW 5 7 Cloudy SCT060 OVC100 20 17     88% 13   30.35 30.5      
Dec 13 03:53 WNW 3 6 Fog/Mist CLR 18 16     92% 13   30.36 30.51      
Dec 13 02:53 Calm 7 Cloudy OVC060 21 19     92%     30.37 30.52      
Dec 13 01:53 Calm 7 Cloudy OVC060 20 17     88%     30.36 30.51      
Dec 13 00:53 Calm 7 Cloudy OVC055 22 19     88%     30.38 30.52      
Dec 12 23:53 Calm 7 Cloudy OVC060 22 19     88%     30.39 30.53      
Dec 12 22:53 Calm 7 Cloudy OVC060 21 19     92%     30.4 30.55      
Dec 12 21:53 Calm 7 Cloudy OVC070 21 18     88%     30.41 30.56      
Dec 12 20:53 Calm 7 Cloudy OVC070 21 18     88%     30.41 30.55      
Dec 12 19:53 Calm 7 Partly Cloudy FEW075 SCT110 21 18     88%     30.42 30.57      
Dec 12 18:53 SE 3 6 Fog/Mist SCT085 21 17     84% 16   30.43 30.58      
Dec 12 17:53 Calm 6 Fog/Mist SCT110 20 17     88%     30.44 30.59      
Dec 12 17:00 Calm 6 Fog/Mist CLR 20 17     88%     30.43        
Dec 12 16:53 Calm 6 Fog/Mist BKN006 20 17     88%     30.43 30.58      
Dec 12 15:53 Calm 4 Fog/Mist BKN006 19 16     88%     30.44 30.59      
Dec 12 15:00 Calm 4 Fog/Mist OVC005 19 17     92%     30.44        
Dec 12 14:53 Calm 2.5 Fog/Mist OVC006 19 16     88%     30.44 30.59      
Dec 12 13:53 Calm 2.5 Fog/Mist OVC006 19 16     88%     30.47 30.62      
Dec 12 12:53 Calm 2.5 Haze OVC007 20 15     81%     30.49 30.64      
Dec 12 12:28 SW 3 2.5 Fog/Mist OVC007 19 16     88% 14   30.5        
Dec 12 12:26 SW 3 4 Fog/Mist OVC007 19 16     88% 14   30.5        
Dec 12 12:15 Calm 2.5 Fog/Mist OVC007 19 16     88%     30.51        
Dec 12 12:03 Calm 3 Fog/Mist OVC007 19 16     88%     30.51        
Dec 12 11:53 SSW 3 2 Fog/Mist OVC007 19 16     88% 14   30.52 30.68      
Dec 12 11:50 SSW 3 1.5 Fog/Mist OVC007 19 16     86% 14   30.52        
Dec 12 11:40 S 3 1 Fog/Mist OVC006 19 16     88% 14   30.52        
Dec 12 11:37 SSW 3 1.5 Fog/Mist OVC006 20 16     84% 15   30.53        
Dec 12 10:53 Calm 2.5 Fog/Mist BKN006 OVC009 19 15     84%     30.54 30.7     0
Dec 12 10:49 SE 3 2.5 Haze OVC006 19 14     79% 14   30.54        
Dec 12 10:47 SE 3 1.5 Haze BKN003 OVC009 19 14     79% 14   30.54        
Dec 12 10:39 Calm 1 Fog/Mist OVC003 19 15     84%     30.55        
Dec 12 10:36 Calm 1.25 Fog/Mist OVC003 19 15     84%     30.55        
Dec 12 10:26 NE 3 2 Fog/Mist OVC003 19 15     84% 14   30.56        
Dec 12 10:08 NW 3 2.5 Fog/Mist OVC005 18 14     84% 13   30.57        
Dec 12 10:01 N 6 3 Haze OVC005 19 14     80% 11   30.58        
Dec 12 09:53 N 3 2 Fog/Mist OVC005 19 15     84% 14   30.57 30.73 0    
Dec 12 09:51 NNE 3 1.25 Light Snow and Fog/Mist OVC005 19 16     86% 14   30.57   0    
Dec 12 09:45 NNE 3 0.5 Light Snow and Fog OVC005 19 15     84% 14   30.57   0    
Dec 12 09:38 NE 3 1 Light Snow and Fog/Mist BKN005 OVC010 18 14     84% 13   30.56   0    
Dec 12 09:29 NNE 3 0.25 Light Snow and Fog VV005 18 14     84% 13   30.56   0    
Dec 12 08:53 Calm 0.25 Fog VV002 18 15     88%     30.55 30.71      
Dec 12 08:41 SE 3 0.25 Fog VV003 18 15     88% 13   30.54        
Dec 12 08:17 SSE 5 0.5 Fog OVC003 18 14     84% 11   30.54        
Dec 12 08:10 Calm 1 Fog/Mist OVC003 18 14     84%     30.55        
Dec 12 07:56 Calm 1.75 Fog/Mist OVC003 17 14     88%     30.56        
Dec 12 07:53 Calm 3 Fog/Mist OVC003 17 14     88%     30.55 30.72   0  
Dec 12 07:49 N 3 3 Fog/Mist OVC003 18 14     86% 12   30.56        
Jun 11 20:53   10 Clear   64 35     34%     29.82 29.8      
Jun 11 14:53 W 5 10 Clear CLR 65 28     25%     29.89 29.9      
Jun 10 12:13 5 6 Light Rain FEW035 BKN043 OVC055 52 41     66%     29.75   0    
Jun 10 08:53 S 7 10 Clear CLR 51 41     68%     29.75 29.74      
Jun 09 13:53 7 10 Light Rain FEW026 SCT037 BKN047 57 48     72%     29.8 29.79 0    
Jun 08 21:53   10 Mostly Clear FEW120 64 51     63%     29.75 29.7      
Jun 07 23:53 E 10 10 Clear CLR 70 54     57%     29.84 29.77      
Jun 07 09:53 Calm 10 Clear CLR 66 52     61%     29.99 29.94      
Jun 06 01:53 N 5 10 Clear CLR 47 41     80% 45   30.17 30.15